Location: Roanoke
(37.2710°N, 79.9420°W)
Time: 02:05:35
(UTC-04:00)

Daily predictions for brighter satellites

Satellite Brightness Start Highest point End
(mag) Time Altitude Azimuth Time Altitude Azimuth Time Altitude Azimuth
COSMOS 2455 4.4 00:10:38 10° NNW 00:13:48 31° N 00:13:48 31° N
FALCON 9 R/B 4.3 00:27:23 63° SW 00:30:06 75° SSE 01:14:11 10° E
SL-16 R/B 4.4 01:07:34 21° NNW 01:07:34 21° NNW 01:09:51 10° N
Cosmos 2369 Rocket 4.4 01:38:08 10° NNW 01:39:48 20° NNW 01:39:48 20° NNW
USA 215 4.4 01:48:54 38° N 01:48:54 38° N 01:53:32 10° NW
Resurs 1-4 Rocket 4.3 02:37:23 10° NE 02:39:37 19° ENE 02:39:37 19° ENE
SL-16 R/B 3.7 02:51:01 36° ENE 02:51:17 36° ENE 02:56:50 10° N
COSMOS 2406 4.5 03:03:18 38° NNE 03:03:18 38° NNE 03:06:44 10° NNE
CZ-2D R/B 3.7 03:00:56 10° NNE 03:04:15 31° ENE 03:04:15 31° ENE
USA 229 DEB 4.0 03:22:53 10° NNW 03:28:31 59° NW 03:28:31 59° NW
USA 229 4.0 03:22:59 10° NNW 03:28:41 60° NW 03:28:41 60° NW
ADEOS Rocket 3.9 03:33:17 10° N 03:36:42 34° NNW 03:36:42 34° NNW
Cosmos 2082 Rocket 3.9 03:40:19 23° ESE 03:41:14 24° E 03:45:39 10° NE
Cosmos 1538 Rocket 4.4 03:52:04 64° NE 03:52:04 64° NE 03:56:39 10° NNE
Cosmos 2285 Rocket 4.3 03:55:05 55° NW 03:55:05 55° NW 04:00:53 10° N
Kakehashi 4.4 03:58:03 37° SE 03:58:03 37° SE 04:03:04 10° E
Meteor 2-10 4.4 03:57:12 64° ESE 03:57:30 65° E 04:03:04 10° NNE
Cosmos 2173 Rocket 4.4 03:58:05 45° SE 03:59:45 58° E 04:05:59 10° NNE
NOSS 3-1 (C) 4.1 03:54:54 10° NNW 04:02:39 81° ENE 04:11:10 10° SE
MOS 1 Rocket 4.2 04:04:22 10° N 04:07:16 39° NNW 04:07:16 39° NNW
BREEZE M DEB (TANK) 3.2 04:09:47 60° NNW 04:10:27 72° NE 04:21:14 10° ESE
Cosmos 1515 Rocket 4.2 04:11:06 52° E 04:11:06 52° E 04:15:14 10° NNE
Tiangong 2 3.8 04:13:48 20° ENE 04:13:48 20° ENE 04:14:57 10° ENE
ARIANE 5 R/B 2.9 04:07:10 10° N 04:11:38 54° NW 04:11:38 54° NW
Cosmos 1633 Rocket 4.2 04:08:53 10° N 04:11:28 35° NNW 04:11:28 35° NNW
Cosmos 2369 4.5 04:09:57 10° NNW 04:15:26 50° ENE 04:20:54 10° SE
In-Cosmos 22 Rocket 4.2 04:11:08 10° N 04:16:29 70° E 04:18:02 46° SSE
Cosmos 1680 Rocket 4.4 04:16:05 36° SE 04:17:33 45° ESE 04:22:36 10° NNE
Cosmos 1459 Rocket 3.9 04:16:15 56° S 04:17:39 83° E 04:23:43 10° N
Resurs 1-4 Rocket 2.9 04:16:30 10° N 04:20:41 38° NW 04:20:41 38° NW
MOZ.5/SAFIR/RUBIN 5/SL-8 3.9 04:24:36 62° NW 04:24:36 62° NW 04:28:37 10° NNW
Cosmos 2228 Rocket 3.2 04:25:04 72° N 04:25:04 72° N 04:29:04 10° N
UNKNOWN OBJECT B 3.5 04:24:41 10° N 04:27:47 48° NNW 04:27:47 48° NNW
Cosmos 1833 Rocket 2.9 04:29:40 44° S 04:31:23 67° ESE 04:36:59 10° NNE
Cosmos 1328 Rocket 4.0 04:33:23 49° NW 04:33:23 49° NW 04:36:53 10° N
Hubble Space Telescope 3.0 04:35:11 15° SE 04:35:11 15° SE 04:36:13 10° SE
SL-16 R/B 3.4 04:36:07 31° WNW 04:36:07 31° WNW 04:40:22 10° NW
Cosmos 773 Rocket 4.2 04:34:58 52° WNW 04:35:11 52° WNW 04:40:23 10° N
Cosmos 192 4.3 04:35:36 56° S 04:36:37 78° ESE 04:41:36 10° NNE
Meteor 1-27 4.2 04:37:13 35° S 04:39:42 78° E 04:45:18 10° NNE
Lacrosse 5 2.0 04:39:39 10° NW 04:44:44 72° NE 04:49:47 10° SE
CZ-2D R/B 3.4 04:41:26 10° NNW 04:45:34 25° WNW 04:45:34 25° WNW
Cosmos 1980 Rocket 4.1 04:46:42 10° N 04:51:39 31° ENE 04:56:36 10° ESE
OAO 2 Rocket 3.5 04:51:41 46° SSW 04:52:32 52° SSE 04:57:20 10° E
Cosmos 1151 Rocket 3.0 04:54:36 55° WSW 04:54:58 57° W 04:59:12 10° N
COSMOS 2487 2.7 04:56:42 52° NW 04:56:42 52° NW 04:59:53 10° N
Cosmos 1933 Rocket 3.6 04:54:21 10° NNW 04:58:43 56° W 04:59:41 45° SW
Cosmos 2061 Rocket 4.3 04:58:48 33° SW 05:01:20 50° W 05:07:33 10° N
Cosmos 1455 2.0 05:01:55 51° SSW 05:02:47 80° W 05:06:33 10° N
Cosmos 2016 Rocket 4.0 04:59:56 30° SSW 05:02:57 60° W 05:09:00 10° N
Cosmos 2278 3.6 04:58:05 10° NNW 05:03:41 64° WSW 05:09:15 10° S
ADEOS II 2.0 04:59:28 10° NNE 05:04:46 87° ESE 05:08:35 19° SSW
Cosmos 1697 Rocket 3.0 05:00:09 10° NNW 05:05:50 71° ENE 05:11:28 10° SSE
CZ-4B R/B 3.4 05:03:04 10° NNE 05:07:36 70° ESE 05:11:14 15° S
Cosmos 1864 Rocket 4.4 05:06:16 17° SSW 05:11:18 76° W 05:17:30 10° N
Cosmos 1707 Rocket 4.2 05:11:04 10° S 05:15:22 55° E 05:19:39 10° NNE
Cosmos 1725 Rocket 3.9 05:13:43 16° SSW 05:18:37 65° W 05:24:46 10° N
ATLAS 2AS CENTAUR R/B 4.2 05:12:00 10° NNW 05:19:36 45° NE 05:26:37 10° ESE
IUS-9 SRM-1 4.3 05:20:10 21° SSW 05:23:03 36° SSE 05:39:18 10° E
Cosmos 2082 Rocket 2.7 05:22:12 25° WSW 05:25:00 42° WNW 05:30:20 10° N
CZ-4B DEB 4.4 05:19:31 10° NNE 05:25:03 75° ESE 05:30:32 10° S
NOSS 3-1 (A) 4.4 05:18:43 10° NW 05:26:05 44° WSW 05:34:01 10° S
Okean O Rocket 1.5 05:22:28 10° NNE 05:26:55 88° W 05:31:14 10° SSW
Cosmos 1900 4.5 05:27:58 21° SW 05:31:13 63° WNW 05:36:19 10° NNE
NOSS 3-3 (A) 4.2 05:27:08 11° SSW 05:32:58 69° ESE 05:39:28 10° NE
NOSS 3-3 (C) 4.2 05:27:07 11° SSW 05:32:58 68° ESE 05:39:27 10° NE
Cosmos 1371 Rocket 4.1 05:30:59 10° NNW 05:36:15 83° ENE 05:41:32 10° SSE
Cosmos 1816 Rocket 4.5 05:30:01 10° NNW 05:36:17 70° W 05:42:35 10° S
NOSS 2-1 (C) 3.9 05:34:20 11° SSW 05:37:49 50° ESE 05:41:39 10° NE
NOSS 2-1 (D) 3.9 05:34:28 11° SSW 05:37:55 52° ESE 05:41:46 10° NE
CZ-2C R/B 4.4 05:36:00 10° SSE 05:40:19 55° ENE 05:44:43 10° N
PSLV R/B 4.0 05:40:37 23° WSW 05:41:47 30° SSW 05:44:39 10° SSE
Cosmos 1408 2.4 05:40:25 10° N 05:44:02 81° W 05:47:36 10° S
Cosmos 1656 4.2 05:39:30 10° NW 05:44:39 36° WSW 05:49:45 10° SSW
CZ-4B R/B 3.1 05:40:44 10° N 05:46:10 75° WNW 05:51:29 10° SSW
Shenzhou-11 Module 3.8 05:44:21 10° WNW 05:47:05 27° N 05:49:47 10° ENE
USA 234 4.3 05:41:12 10° ENE 05:47:19 41° SE 05:53:23 10° SSW
Cosmos 2360 4.3 05:43:14 10° NNW 05:48:57 82° ENE 05:54:38 10° SSE
Tiangong 2 2.7 05:46:10 11° WNW 05:48:58 30° N 05:51:51 10° ENE
Landsat 4 3.6 05:45:26 10° S 05:49:09 74° WSW 05:52:55 10° NNW
Cosmos 1892 4.3 05:47:00 10° NW 05:49:32 17° W 05:50:34 15° WSW
Tsikada Rocket 4.3 05:44:49 10° NNW 05:50:47 45° W 05:56:48 10° SSW
Cosmos 1624 Rocket 4.0 05:46:18 10° NNW 05:51:34 87° WSW 05:56:46 10° SSE
Cosmos 1825 2.1 05:50:56 10° NNW 05:54:42 62° W 05:58:27 10° S
GPS 2-04 Rocket1 3.3 05:52:37 14° SW 05:55:10 35° SSE 05:58:23 10° E
Cosmos 1869 3.8 05:52:04 10° SSW 05:55:46 38° W 05:59:31 10° N
Lacrosse 4 Rocket 2.1 05:52:13 10° SSW 05:56:34 60° ESE 06:01:00 10° NNE
Meteor 1-31 Rocket 2.8 05:55:59 10° N 05:59:57 84° WNW 06:03:53 10° SSW
NOSS 2-1 (E) 3.2 05:59:01 10° SSW 06:02:44 90° NW 06:06:50 10° NNE
Cosmos 2322 Rocket 3.7 05:57:33 10° N 06:02:52 41° ENE 06:08:08 10° SE
Cosmos 1869 Rocket 4.2 06:00:46 10° NNW 06:04:52 36° W 06:08:54 10° SSW
COSMO-SKYMED 1 4.5 06:02:46 10° SE 06:06:44 36° ENE 06:10:42 10° N
Hubble Space Telescope 2.7 06:11:07 10° SW 06:13:31 15° SSW 06:15:54 10° SSE
ASTEX 1 3.7 06:08:37 10° N 06:13:31 75° E 06:18:23 10° S
Cosmos 1833 Rocket 4.3 06:12:09 10° W 06:15:48 17° NW 06:19:29 10° NNW
SL-16 R/B 3.2 06:10:34 10° NNW 06:16:08 53° ENE 06:21:38 10° SE
ATLAS 5 CENTAUR R/B 2.0 06:14:33 10° SSW 06:19:05 73° ESE 06:24:00 10° NE
Cosmos 2242 Rocket 3.7 06:16:01 10° SSW 06:20:27 60° W 06:24:51 10° N
H-2A R/B 3.9 06:39:51 10° W 07:08:55 50° SSW 07:13:32 10° ESE
